STARLINK-33815, 63497

Orbit data source: Space-Track

STARLINK-33815, 63497 is a payload satellite owned by SpaceX/Seattle (US) in LEO that was launched on Mon, 07 Apr 2025 UTC via an FALCON 9 launch vehicle from the Air Force Western Test Range (AFWTR). Payload-class satellites include a variety of spacecraft equipped with specific instruments for various scientific and technological missions. These include communications satellites like Starlink; space stations such as the ISS; scientific satellites like the Hubble; Earth observation satellites from companies like Planet Labs, Umbra, and HawkEye 360; GPS; miniature CubeSats for education and research; and military/defense satellites.

Loading next visibility...
Identifier
63497, 2025-071E
Orbit
LEO
Last TLE update
12 hours ago
Origin
Manufacturer
SpaceX/Seattle
Mission
Operational Commercial Communications
Bus & Motor
STARLINK V2MO, Unknown motor
Mass
575 kg wet, ~530 kg dry
Launch date (UTC)
2025-04-07 (3 months ago)
Launch vehicle
FALCON 9
Launch site
Air Force Western Test Range (AFWTR)
Object type
Payload
Rocket body
Debris
Shape & HBR
Box + 1 Pan, 29 m
Radar Cross Section
41.120 m², Large (>1 m²)

Expand to show TLE details & history

TLE from 12 hours ago
0 STARLINK-33815
1 63497U 25071E   25191.58335648 -.01167632  00000-0 -35073-1 0  9991
2 63497  53.1573 184.7665 0001049  74.4715  96.6325 15.36857786  5859
Epoch: 2025-07-10T14:00Z
TLE epoch observation values (Epoch: 2025-07-10T14:00:01.999Z)
Latitude
7.06343°
Longitude
-139.28674°
Altitude
455.752 km
Speed
7.641 km/s
True Right ascension
23h 57m 52s
True Declination
7° 01' 11"
Sunlit
Object was in daylight at epoch
Visualization orbit readout
Latitude
31.41372°
Longitude
70.74946°
Altitude
460.521 km
Speed
7.641 km/s
Apparent Right ascension
12h 48m 23s
Apparent Declination
-27° 47' 36"
Sunlit
Object is in daylight
Visualization observer readout
Local Sidereal Time
14:11:59
Azimuth
199.568° SSW
Elevation
19.552°
Doppler factor
1
Orbital elements
Apogee altitude
456.382 km
Perigee altitude
454.949 km
Semi-major axis
6,833.803 km
Eccentricity
0.0001
Inclination
53.1573°
RAAN
184.7665°
Arg. of periapsis
74.4715°
True anomaly
Unknown
Mean anomaly
96.6325°
Eccentric anomaly
Unknown
Mean motion
3.84193 °/min
Orbital period
93.7 mins
BSTAR
-0.035073
Loading maneuver chart data...
Loading SW <> Apogee altitude chart data...
Loading historical data...
Loading historical data...
Loading historical data...
Loading historical data...
Loading historical data...
Loading historical data...
Loading historical data...

STARLINK-33815 Visibility forecast

Observer location: undefined°, undefined°

Span
Click to sort rows by Start time (UTC) header in descending order
Start Az.
Max El. time (UTC)
Max El. Az.
Max El.
End time (UTC)
End Az.
5 mins2025-07-11 01:55:30.836Z199.379° SSW2025-07-11 01:57:30.836Z145.976° SSE34.567°2025-07-11 02:00:30.836Z65.087° ENE
4 mins2025-07-11 03:33:30.836Z287.152° WNW2025-07-11 03:35:30.836Z335.086° NNW23.192°2025-07-11 03:37:30.836Z19.67° NNE
5 mins2025-07-11 08:29:30.836Z337.487° NNW2025-07-11 08:31:30.836Z43.112° NE31.974°2025-07-11 08:34:30.836Z103.261° ESE
4 mins2025-07-11 10:07:30.836Z260.702° W2025-07-11 10:08:30.836Z236.234° WSW21.851°2025-07-11 10:11:30.836Z176.255° S
5 mins2025-07-12 01:22:30.836Z182.615° SSW2025-07-12 01:24:30.836Z121.625° SE29.039°2025-07-12 01:27:30.836Z66.694° ENE
|